Погода в Онтарио

США     44˚01′35″N   116˚57′46″W
темп.,
°C
ветер,
м/с
пор.,
м/с
влажн.,
%
обл.,
%
осадки,
мм/ч
давл.,
гПа
погр.,
м
16 января, сб
сб1601:00−1˚ссз126530 0.0 103121
04:00−2˚с116715 0.0 103221
07:00−1˚ссв126636 0.0 103221
10:00+1˚ссз116068 0.0 1032168
13:00+4˚с21628 0.0 1028390
16:00+2˚ссв22754 0.0 102838
19:00с228323 0.0 102923
22:00−1˚ссз128439 0.0 102921
17 января, вс
вс1701:00с2282100 0.0 102923
04:00с1281100 0.0 102821
07:00−1˚ссв118425 0.0 102721
10:00+2˚с226921 0.0 1026223
13:00+4˚с336778 0.0 1024354
16:00+2˚зсз127789 0.0 102424
19:00+1˚ссз2281100 0.0 102722
22:00+1˚сз238494 0.0 102925
18 января, пн
пн1801:00−1˚ссз22862 0.0 103022
04:00−1˚сз22831 0.0 103021
07:00−1˚сз22810 0.0 103121
10:00+2˚ссз34650 0.0 1030307
13:00+4˚ссз46600 0.0 1028443
16:00+3˚ссз23700 0.0 102844
19:00ссз34780 0.0 103172
22:00−1˚ссз23760 0.0 103229
19 января, вт
вт1901:00−1˚ссз33760 0.0 103356
04:00−2˚ссз23760 0.0 103433
07:00−2˚ссз12770 0.0 103521
10:00+1˚ссз11600 0.0 1034277
13:00+3˚св11540 0.0 1031606
16:00+1˚ссв22670 0.0 103065
19:00−1˚с227428 0.0 103022
22:00−1˚ссв127259 0.0 103021
20 января, ср
ср2001:00−2˚ссв1173100 0.0 102921
04:00−2˚св127659 0.0 102721
07:00−3˚всв117044 0.0 102722
10:00+1˚юв354658 0.0 1025479
13:00+3˚ююв254195 0.0 1022747
16:00с346498 0.0 102193
19:00−2˚с2268100 0.0 102126
22:00−2˚ссв2268100 0.0 102026